| time (UTC) | temp F | wind direction | speed knots | gust knots | rain 1hr in | rain 24hr in | rain mn in | humidity % | barometer mb |
| 20260906212733 | 63 | 313 | 1.7 | 1.7 | 0.00 | 0.00 | 0.30 | 78 | 1018.4 |
| 20260906212333 | 64 | 0.0 | 0.0 | 0.00 | 0.00 | 0.30 | 86 | 1018.6 | |
| 20260906211733 | 64 | 333 | 0.0 | 0.9 | 0.00 | 0.00 | 0.30 | 82 | 1018.6 |
| 20260906211231 | 65 | 336 | 1.7 | 2.6 | 0.00 | 0.00 | 0.30 | 79 | 1018.2 |
| 20260906210733 | 66 | 312 | 1.7 | 4.3 | 0.00 | 0.00 | 0.30 | 75 | 1018.2 |
| 20260906210233 | 66 | 321 | 0.9 | 1.7 | 0.00 | 0.00 | 0.30 | 76 | 1018.2 |
| 20260906205230 | 64 | 321 | 0.9 | 1.7 | 0.00 | 0.00 | 0.30 | 81 | 1018.2 |
| 20260906204731 | 0 | 0.0 | 0.0 | 0.00 | 0.00 | 0.30 | 1018.2 | ||
| 20260906204230 | 62 | 0.0 | 0.0 | 0.00 | 0.00 | 0.30 | 88 | 1018.2 | |
| 20260906203729 | 62 | 0.0 | 0.0 | 0.00 | 0.00 | 0.30 | 88 | 1018.2 | |
| 20260906203228 | 62 | 0.0 | 0.0 | 0.00 | 0.00 | 0.30 | 86 | 1018.0 | |
| 20260906202728 | 0 | 0.0 | 0.0 | 0.00 | 0.00 | 0.30 | 1018.2 | ||
| 20260906202229 | 64 | 0.0 | 0.0 | 0.00 | 0.00 | 0.30 | 80 | 1018.2 | |
| 20260906201728 | 64 | 0.0 | 0.0 | 0.00 | 0.00 | 0.30 | 80 | 1017.9 | |
| 20260906201227 | 0 | 0.0 | 0.0 | 0.00 | 0.00 | 0.30 | 1018.0 | ||
| 20260906200728 | 0 | 0.0 | 0.0 | 0.00 | 0.00 | 0.30 | 1017.9 | ||
| 20260906200227 | 0 | 0.0 | 0.0 | 0.00 | 0.00 | 0.30 | 1017.9 | ||
| 20260906195727 | 0 | 0.0 | 0.0 | 0.00 | 0.00 | 0.30 | 1017.9 | ||
| 20260906195227 | 67 | 345 | 3.5 | 5.2 | 0.00 | 0.00 | 0.30 | 68 | 1017.9 |
| 20260906194727 | 67 | 345 | 3.5 | 5.2 | 0.00 | 0.00 | 0.30 | 68 | 1017.9 |
| 20260906194226 | 68 | 356 | 2.6 | 2.6 | 0.00 | 0.00 | 0.30 | 68 | 1017.9 |
| 20260906193726 | 67 | 303 | 1.7 | 1.7 | 0.00 | 0.00 | 0.30 | 68 | 1017.9 |
| 20260906193226 | 67 | 315 | 4.3 | 5.2 | 0.00 | 0.00 | 0.30 | 68 | 1017.9 |
| 20260906192725 | 67 | 330 | 0.0 | 1.7 | 0.00 | 0.00 | 0.30 | 66 | 1017.9 |
| 20260906191727 | 68 | 312 | 1.7 | 2.6 | 0.00 | 0.00 | 0.30 | 63 | 1018.2 |
| 20260906191225 | 68 | 357 | 1.7 | 4.3 | 0.00 | 0.00 | 0.30 | 61 | 1018.0 |
| 20260906190724 | 69 | 330 | 3.5 | 5.2 | 0.00 | 0.00 | 0.30 | 66 | 1018.2 |
| 20260906190226 | 69 | 324 | 2.6 | 2.6 | 0.00 | 0.00 | 0.30 | 63 | 1018.2 |
| 20260906185722 | 69 | 312 | 2.6 | 2.6 | 0.00 | 0.00 | 0.30 | 65 | 1018.2 |
| 20260906184723 | 68 | 316 | 2.6 | 4.3 | 0.00 | 0.00 | 0.30 | 64 | 1017.9 |
| 20260906184223 | 67 | 326 | 7.0 | 9.6 | 0.00 | 0.00 | 0.30 | 64 | 1018.2 |
| 20260906183721 | 68 | 305 | 2.6 | 2.6 | 0.00 | 0.00 | 0.30 | 65 | 1018.2 |
| 20260906183222 | 68 | 274 | 3.5 | 5.2 | 0.00 | 0.00 | 0.30 | 64 | 1018.2 |
| 20260906182721 | 69 | 314 | 2.6 | 2.6 | 0.00 | 0.00 | 0.30 | 65 | 1018.2 |
| 20260906182222 | 68 | 9 | 4.3 | 6.1 | 0.00 | 0.00 | 0.30 | 68 | 1018.2 |
| 20260906181719 | 67 | 341 | 5.2 | 8.7 | 0.00 | 0.00 | 0.30 | 67 | 1018.6 |
| 20260906181221 | 68 | 292 | 2.6 | 6.1 | 0.00 | 0.00 | 0.30 | 70 | 1018.2 |
| 20260906180720 | 67 | 314 | 4.3 | 7.8 | 0.00 | 0.00 | 0.30 | 70 | 1018.4 |
| 20260906180219 | 68 | 296 | 1.7 | 4.3 | 0.00 | 0.00 | 0.30 | 78 | 1018.4 |
| 20260906175718 | 67 | 296 | 1.7 | 2.6 | 0.00 | 0.00 | 0.30 | 75 | 1018.2 |
| 20260906175219 | 68 | 331 | 0.9 | 1.7 | 0.00 | 0.00 | 0.30 | 76 | 1018.6 |
| 20260906174718 | 67 | 344 | 0.9 | 1.7 | 0.00 | 0.00 | 0.30 | 77 | 1018.6 |
| 20260906174218 | 65 | 305 | 4.3 | 5.2 | 0.00 | 0.00 | 0.30 | 78 | 1018.6 |
| 20260906173717 | 65 | 305 | 4.3 | 5.2 | 0.00 | 0.00 | 0.30 | 78 | 1018.6 |
| 20260906173218 | 0 | 0.0 | 0.0 | 0.00 | 0.00 | 0.30 | 1018.6 | ||
| 20260906172717 | 0 | 0.0 | 0.0 | 0.00 | 0.00 | 0.30 | 1018.6 | ||
| 20260906172216 | 0 | 0.0 | 0.0 | 0.00 | 0.00 | 0.30 | 1018.6 | ||
| 20260906171715 | 65 | 333 | 4.3 | 5.2 | 0.00 | 0.00 | 0.30 | 84 | 1018.6 |
| 20260906171247 | 65 | 333 | 4.3 | 5.2 | 0.00 | 0.00 | 0.30 | 84 | 1018.6 |
| 20260906170746 | 64 | 19 | 3.5 | 4.3 | 0.00 | 0.00 | 0.30 | 84 | 1018.9 |
| 20260906170346 | 64 | 19 | 3.5 | 4.3 | 0.00 | 0.00 | 0.30 | 84 | 1018.9 |
| 20260906165747 | 64 | 307 | 1.7 | 2.6 | 0.00 | 0.00 | 0.30 | 86 | 1018.9 |
| 20260906165244 | 64 | 327 | 2.6 | 4.3 | 0.00 | 0.00 | 0.30 | 85 | 1018.9 |
| 20260906164745 | 64 | 320 | 4.3 | 5.2 | 0.00 | 0.00 | 0.30 | 87 | 1018.9 |
| 20260906164247 | 60 | 14 | 2.6 | 4.3 | 0.00 | 0.00 | 0.30 | 93 | 1019.3 |
| 20260906163743 | 60 | 331 | 2.6 | 5.2 | 0.00 | 0.00 | 0.30 | 94 | 1019.3 |
| 20260906163345 | 60 | 334 | 1.7 | 1.7 | 0.00 | 0.00 | 0.30 | 95 | 1019.3 |
| 20260906162743 | 60 | 317 | 0.9 | 2.6 | 0.00 | 0.00 | 0.30 | 96 | 1019.3 |
| 20260906162243 | 60 | 290 | 1.7 | 2.6 | 0.00 | 0.00 | 0.30 | 95 | 1019.3 |
| 20260906161744 | 61 | 317 | 1.7 | 4.3 | 0.00 | 0.00 | 0.30 | 91 | 1019.3 |
| 20260906161243 | 62 | 325 | 0.9 | 0.9 | 0.00 | 0.00 | 0.30 | 89 | 1019.4 |
| 20260906160742 | 62 | 339 | 0.9 | 1.7 | 0.00 | 0.00 | 0.30 | 89 | 1019.3 |
| 20260906160241 | 62 | 339 | 2.6 | 2.6 | 0.00 | 0.00 | 0.30 | 90 | 1019.3 |
| 20260906155741 | 62 | 305 | 1.7 | 5.2 | 0.00 | 0.00 | 0.30 | 91 | 1019.3 |
| 20260906155241 | 62 | 328 | 0.9 | 0.9 | 0.00 | 0.00 | 0.30 | 91 | 1019.3 |
| 20260906154741 | 64 | 35 | 4.3 | 6.1 | 0.00 | 0.00 | 0.30 | 88 | 1018.9 |
| 20260906154240 | 63 | 328 | 1.7 | 2.6 | 0.00 | 0.00 | 0.30 | 87 | 1019.1 |
| 20260906153842 | 62 | 313 | 2.6 | 2.6 | 0.00 | 0.00 | 0.30 | 90 | 1019.3 |
| 20260906153241 | 62 | 327 | 1.7 | 2.6 | 0.00 | 0.00 | 0.30 | 89 | 1018.9 |
| 20260906152740 | 64 | 324 | 4.3 | 5.2 | 0.00 | 0.00 | 0.30 | 89 | 1019.3 |
| 20260906152240 | 64 | 316 | 1.7 | 2.6 | 0.00 | 0.00 | 0.30 | 89 | 1019.4 |
| 20260906151740 | 64 | 303 | 0.9 | 0.9 | 0.00 | 0.00 | 0.30 | 90 | 1019.3 |
| 20260906151239 | 63 | 96 | 1.7 | 5.2 | 0.00 | 0.00 | 0.30 | 89 | 1019.6 |
| 20260906150738 | 63 | 96 | 1.7 | 5.2 | 0.00 | 0.00 | 0.30 | 89 | 1019.3 |
| 20260906150238 | 62 | 3 | 6.1 | 7.8 | 0.00 | 0.00 | 0.30 | 93 | 1019.3 |
| 20260906145737 | 62 | 316 | 0.9 | 0.9 | 0.00 | 0.00 | 0.30 | 93 | 1019.3 |
| 20260906145236 | 62 | 321 | 0.9 | 0.9 | 0.00 | 0.00 | 0.30 | 94 | 1019.3 |
| 20260906144737 | 59 | 345 | 0.9 | 1.7 | 0.00 | 0.00 | 0.30 | 96 | 1019.3 |
| 20260906144236 | 59 | 336 | 0.9 | 1.7 | 0.00 | 0.00 | 0.30 | 96 | 1019.3 |
| 20260906143735 | 60 | 334 | 0.9 | 1.7 | 0.00 | 0.00 | 0.30 | 96 | 1019.3 |
| 20260906143235 | 60 | 327 | 0.9 | 0.9 | 0.00 | 0.00 | 0.30 | 98 | 1019.1 |
| 20260906142736 | 60 | 325 | 0.9 | 0.9 | 0.00 | 0.00 | 0.30 | 99 | 1018.9 |
| 20260906142235 | 59 | 303 | 2.6 | 2.6 | 0.00 | 0.00 | 0.30 | 99 | 1019.3 |
| 20260906141734 | 59 | 326 | 1.7 | 1.7 | 0.00 | 0.00 | 0.30 | 99 | 1019.3 |
| 20260906141235 | 58 | 0.0 | 0.0 | 0.00 | 0.00 | 0.30 | 99 | 1019.3 | |
| 20260906140733 | 57 | 325 | 2.6 | 2.6 | 0.00 | 0.00 | 0.30 | 99 | 1019.3 |
| 20260906140335 | 57 | 303 | 2.6 | 2.6 | 0.00 | 0.00 | 0.30 | 99 | 1019.3 |
| 20260906135733 | 57 | 306 | 1.7 | 2.6 | 0.00 | 0.00 | 0.30 | 99 | 1019.3 |
| 20260906135232 | 57 | 294 | 2.6 | 4.3 | 0.00 | 0.00 | 0.30 | 99 | 1019.6 |
| 20260906134733 | 57 | 326 | 1.7 | 1.7 | 0.00 | 0.00 | 0.30 | 99 | 1019.3 |
| 20260906134233 | 57 | 285 | 2.6 | 2.6 | 0.00 | 0.00 | 0.30 | 99 | 1019.3 |
| 20260906133833 | 56 | 324 | 0.9 | 0.9 | 0.00 | 0.00 | 0.30 | 99 | 1018.9 |
| 20260906133231 | 56 | 297 | 1.7 | 1.7 | 0.00 | 0.00 | 0.30 | 99 | 1019.1 |
| 20260906132733 | 55 | 326 | 0.0 | 0.9 | 0.00 | 0.00 | 0.30 | 99 | 1018.9 |
| 20260906132232 | 55 | 310 | 1.7 | 5.2 | 0.00 | 0.00 | 0.30 | 99 | 1019.3 |
| 20260906131731 | 55 | 321 | 0.9 | 0.9 | 0.00 | 0.00 | 0.30 | 99 | 1019.1 |
| 20260906131230 | 55 | 0.0 | 0.0 | 0.00 | 0.00 | 0.30 | 99 | 1019.3 | |
| 20260906130731 | 55 | 330 | 0.0 | 0.9 | 0.00 | 0.00 | 0.30 | 99 | 1019.1 |
| 20260906130230 | 55 | 0.0 | 0.0 | 0.00 | 0.00 | 0.30 | 99 | 1018.9 | |
| 20260906120226 | 55 | 323 | 1.7 | 1.7 | 0.00 | 0.00 | 0.26 | 99 | 1018.6 |
| 20260906105721 | 54 | 0.0 | 0.0 | 0.00 | 0.00 | 0.25 | 99 | 1017.9 | |
| 20260906105224 | 54 | 0.0 | 0.0 | 0.00 | 0.00 | 0.25 | 99 | 1017.9 | |
| 20260906104721 | 54 | 335 | 0.9 | 0.9 | 0.00 | 0.00 | 0.25 | 99 | 1017.9 |
| 20260906104221 | 54 | 318 | 0.0 | 0.9 | 0.00 | 0.00 | 0.25 | 99 | 1017.9 |
| 20260906103720 | 54 | 314 | 0.0 | 0.9 | 0.00 | 0.00 | 0.25 | 99 | 1017.9 |
| 20260906103221 | 54 | 0.0 | 0.0 | 0.00 | 0.00 | 0.24 | 99 | 1017.9 | |
| 20260906102722 | 54 | 320 | 0.9 | 0.9 | 0.00 | 0.00 | 0.23 | 99 | 1017.9 |
| 20260906102219 | 54 | 319 | 0.9 | 1.7 | 0.00 | 0.00 | 0.22 | 99 | 1017.9 |
| 20260906101718 | 54 | 0.0 | 0.0 | 0.00 | 0.00 | 0.22 | 99 | 1017.9 | |
| 20260906100719 | 54 | 320 | 0.9 | 0.9 | 0.00 | 0.00 | 0.22 | 99 | 1017.7 |
| 20260906100218 | 54 | 324 | 0.0 | 0.9 | 0.00 | 0.00 | 0.21 | 99 | 1017.9 |
| 20260906095717 | 54 | 322 | 0.0 | 0.9 | 0.00 | 0.00 | 0.21 | 99 | 1017.5 |
| 20260906095218 | 54 | 0.0 | 0.0 | 0.00 | 0.00 | 0.19 | 99 | 1017.5 | |
| 20260906094717 | 54 | 0.0 | 0.0 | 0.00 | 0.00 | 0.18 | 99 | 1017.5 | |
| 20260906094218 | 55 | 0.0 | 0.0 | 0.00 | 0.00 | 0.18 | 99 | 1017.5 | |
| 20260906093247 | 55 | 0.0 | 0.0 | 0.00 | 0.00 | 0.17 | 99 | 1017.3 | |
| 20260906092746 | 55 | 318 | 0.9 | 0.9 | 0.00 | 0.00 | 0.17 | 99 | 1017.2 |
| 20260906092245 | 55 | 310 | 0.0 | 0.9 | 0.00 | 0.00 | 0.17 | 99 | 1017.5 |
| 20260906091245 | 55 | 310 | 0.9 | 1.7 | 0.00 | 0.00 | 0.17 | 99 | 1017.2 |
| 20260906090244 | 55 | 333 | 0.9 | 0.9 | 0.00 | 0.00 | 0.16 | 99 | 1017.2 |
| 20260906085744 | 55 | 0.0 | 0.0 | 0.00 | 0.00 | 0.16 | 99 | 1016.8 | |
| 20260906085242 | 56 | 0.0 | 0.0 | 0.00 | 0.00 | 0.16 | 99 | 1016.8 | |
| 20260906084746 | 56 | 0.0 | 0.0 | 0.00 | 0.00 | 0.16 | 99 | 1016.8 | |
| 20260906084242 | 56 | 0.0 | 0.0 | 0.00 | 0.00 | 0.16 | 99 | 1016.8 | |
| 20260906083741 | 56 | 0.0 | 0.0 | 0.00 | 0.00 | 0.16 | 99 | 1016.8 | |
| 20260906083242 | 56 | 325 | 0.9 | 0.9 | 0.00 | 0.00 | 0.16 | 99 | 1016.8 |
| 20260906082744 | 56 | 322 | 0.9 | 1.7 | 0.00 | 0.00 | 0.16 | 99 | 1017.0 |
| 20260906082241 | 56 | 320 | 0.9 | 1.7 | 0.00 | 0.00 | 0.16 | 99 | 1016.8 |
| 20260906081741 | 56 | 332 | 0.9 | 0.9 | 0.00 | 0.00 | 0.16 | 99 | 1016.8 |
| 20260906080240 | 56 | 322 | 0.9 | 0.9 | 0.00 | 0.00 | 0.16 | 99 | 1016.8 |
| 20260906075743 | 56 | 324 | 0.0 | 0.9 | 0.00 | 0.00 | 0.16 | 99 | 1016.8 |
| 20260906075241 | 56 | 323 | 0.0 | 0.9 | 0.00 | 0.00 | 0.16 | 99 | 1016.8 |
| 20260906074742 | 56 | 0.0 | 0.0 | 0.00 | 0.00 | 0.16 | 99 | 1016.8 | |
| 20260906074239 | 56 | 318 | 0.9 | 0.9 | 0.00 | 0.00 | 0.16 | 99 | 1016.8 |
| 20260906063734 | 56 | 0.0 | 0.0 | 0.00 | 0.00 | 0.15 | 99 | 1016.8 | |
| 20260906063233 | 56 | 0.0 | 0.0 | 0.00 | 0.00 | 0.15 | 99 | 1016.8 | |
| 20260906062735 | 56 | 326 | 0.0 | 0.9 | 0.00 | 0.00 | 0.15 | 99 | 1016.8 |
| 20260906062234 | 56 | 326 | 0.0 | 0.9 | 0.00 | 0.00 | 0.15 | 99 | 1016.8 |
| 20260906061733 | 56 | 0.0 | 0.0 | 0.00 | 0.00 | 0.15 | 99 | 1016.8 | |
| 20260906061232 | 56 | 0.0 | 0.0 | 0.00 | 0.00 | 0.15 | 99 | 1016.8 | |
| 20260906060731 | 56 | 327 | 0.0 | 0.9 | 0.00 | 0.00 | 0.15 | 99 | 1016.8 |
| 20260906060233 | 56 | 323 | 0.9 | 0.9 | 0.00 | 0.00 | 0.15 | 99 | 1016.8 |
| 20260906055731 | 57 | 329 | 0.9 | 1.7 | 0.00 | 0.00 | 0.15 | 99 | 1016.8 |
| 20260906051731 | 56 | 324 | 0.0 | 0.9 | 0.00 | 0.00 | 0.15 | 99 | 1016.8 |
| 20260906051230 | 56 | 0.0 | 0.0 | 0.00 | 0.00 | 0.15 | 99 | 1016.8 | |
| 20260906050730 | 56 | 330 | 0.9 | 0.9 | 0.00 | 0.00 | 0.15 | 99 | 1016.8 |
| 20260906050229 | 56 | 0.0 | 0.0 | 0.00 | 0.00 | 0.15 | 99 | 1016.8 | |
| 20260906045228 | 56 | 0.0 | 0.0 | 0.00 | 0.00 | 0.15 | 99 | 1016.8 | |
| 20260906044229 | 57 | 326 | 0.0 | 0.9 | 0.00 | 0.00 | 0.14 | 99 | 1017.2 |
| 20260906043727 | 56 | 0.0 | 0.0 | 0.00 | 0.00 | 0.14 | 99 | 1016.8 | |
| 20260906043226 | 56 | 323 | 0.9 | 0.9 | 0.00 | 0.00 | 0.13 | 99 | 1016.8 |
| 20260906042725 | 56 | 324 | 0.0 | 0.9 | 0.00 | 0.00 | 0.12 | 99 | 1016.8 |
| 20260906042226 | 56 | 0.0 | 0.0 | 0.00 | 0.00 | 0.11 | 99 | 1016.8 | |
| 20260906041725 | 57 | 0.0 | 0.0 | 0.00 | 0.00 | 0.08 | 99 | 1017.2 | |
| 20260906041225 | 57 | 0.0 | 0.0 | 0.00 | 0.00 | 0.05 | 99 | 1017.2 | |
| 20260906040724 | 57 | 0.0 | 0.0 | 0.00 | 0.00 | 0.01 | 99 | 1017.2 | |
| 20260906040226 | 57 | 0.0 | 0.0 | 0.00 | 0.00 | 0.00 | 99 | 1017.2 | |
| 20260906035724 | 57 | 324 | 0.9 | 0.9 | 0.00 | 0.00 | 0.15 | 99 | 1017.2 |
| 20260906035223 | 57 | 326 | 0.0 | 0.9 | 0.00 | 0.00 | 0.15 | 99 | 1017.2 |
| 20260906034723 | 57 | 329 | 0.9 | 0.9 | 0.00 | 0.00 | 0.14 | 99 | 1017.2 |
| 20260906034224 | 57 | 326 | 0.9 | 0.9 | 0.00 | 0.00 | 0.13 | 99 | 1017.2 |
| 20260906033724 | 57 | 319 | 0.9 | 0.9 | 0.00 | 0.00 | 0.13 | 99 | 1016.8 |
| 20260906033222 | 57 | 330 | 0.9 | 0.9 | 0.00 | 0.00 | 0.12 | 99 | 1016.8 |
| 20260906032721 | 57 | 322 | 0.9 | 0.9 | 0.00 | 0.00 | 0.12 | 99 | 1016.8 |
| 20260906032220 | 57 | 330 | 0.0 | 0.9 | 0.00 | 0.00 | 0.11 | 99 | 1016.8 |
| 20260906031721 | 57 | 0.0 | 0.0 | 0.00 | 0.00 | 0.11 | 99 | 1016.8 | |
| 20260906031220 | 57 | 0.0 | 0.0 | 0.00 | 0.00 | 0.11 | 99 | 1016.8 | |
| 20260906030719 | 57 | 0.0 | 0.0 | 0.00 | 0.00 | 0.11 | 99 | 1016.8 | |
| 20260906030220 | 58 | 0.0 | 0.0 | 0.00 | 0.00 | 0.11 | 99 | 1016.8 | |
| 20260906025720 | 58 | 312 | 0.9 | 1.7 | 0.00 | 0.00 | 0.11 | 99 | 1016.8 |
| 20260906025219 | 58 | 280 | 2.6 | 2.6 | 0.00 | 0.00 | 0.11 | 99 | 1016.6 |
| 20260906024718 | 58 | 277 | 2.6 | 2.6 | 0.00 | 0.00 | 0.11 | 99 | 1016.5 |
| 20260906024219 | 58 | 303 | 1.7 | 1.7 | 0.00 | 0.00 | 0.10 | 99 | 1016.8 |
| 20260906023719 | 58 | 304 | 1.7 | 2.6 | 0.00 | 0.00 | 0.10 | 99 | 1016.6 |
| 20260906023218 | 59 | 304 | 1.7 | 2.6 | 0.00 | 0.00 | 0.09 | 99 | 1016.5 |
| 20260906022717 | 59 | 313 | 0.9 | 1.7 | 0.00 | 0.00 | 0.09 | 99 | 1016.5 |
| 20260906022257 | 59 | 317 | 1.7 | 1.7 | 0.00 | 0.00 | 0.08 | 99 | 1016.5 |
| 20260906011744 | 62 | 0.0 | 0.0 | 0.00 | 0.00 | 0.00 | 96 | 1016.3 | |
| 20260906011243 | 63 | 323 | 0.9 | 1.7 | 0.00 | 0.00 | 0.00 | 95 | 1016.1 |
| 20260906010745 | 63 | 319 | 1.7 | 4.3 | 0.00 | 0.00 | 0.00 | 94 | 1016.1 |
| 20260906010243 | 63 | 302 | 2.6 | 4.3 | 0.00 | 0.00 | 0.00 | 94 | 1016.1 |
| 20260906005742 | 63 | 319 | 2.6 | 4.3 | 0.00 | 0.00 | 0.00 | 93 | 1016.1 |
| 20260906005241 | 63 | 0.0 | 0.0 | 0.00 | 0.00 | 0.00 | 93 | 1016.1 | |
| 20260906004741 | 64 | 327 | 1.7 | 1.7 | 0.00 | 0.00 | 0.00 | 93 | 1015.8 |
| 20260906003841 | 64 | 327 | 0.9 | 1.7 | 0.00 | 0.00 | 0.00 | 91 | 1015.8 |
| 20260906003240 | 63 | 317 | 0.9 | 0.9 | 0.00 | 0.00 | 0.00 | 93 | 1015.8 |
| 20260906002739 | 63 | 317 | 0.9 | 1.7 | 0.00 | 0.00 | 0.00 | 96 | 1015.6 |
| 20260906002239 | 63 | 322 | 1.7 | 2.6 | 0.00 | 0.00 | 0.00 | 95 | 1015.4 |
| 20260906001740 | 63 | 322 | 0.9 | 0.9 | 0.00 | 0.00 | 0.00 | 96 | 1015.4 |
| 20260906001239 | 64 | 322 | 0.9 | 0.9 | 0.00 | 0.00 | 0.00 | 94 | 1015.4 |
| 20260906000738 | 64 | 324 | 0.9 | 0.9 | 0.00 | 0.00 | 0.00 | 92 | 1015.6 |
| 20260906000304 | 64 | 327 | 1.7 | 1.7 | 0.00 | 0.00 | 0.00 | 93 | 1015.4 |
| 20260905235738 | 64 | 320 | 0.9 | 1.7 | 0.00 | 0.00 | 0.00 | 92 | 1015.4 |
| 20260905235237 | 63 | 322 | 0.9 | 0.9 | 0.00 | 0.00 | 0.00 | 95 | 1015.4 |
| 20260905234737 | 63 | 324 | 0.9 | 0.9 | 0.00 | 0.00 | 0.00 | 96 | 1015.4 |
| 20260905234236 | 63 | 322 | 0.9 | 0.9 | 0.00 | 0.00 | 0.00 | 96 | 1015.4 |
| 20260905233737 | 63 | 326 | 0.9 | 0.9 | 0.00 | 0.00 | 0.00 | 96 | 1015.1 |
| 20260905233236 | 63 | 325 | 0.9 | 0.9 | 0.00 | 0.00 | 0.00 | 95 | 1015.1 |
| 20260905232735 | 63 | 325 | 0.9 | 0.9 | 0.00 | 0.00 | 0.00 | 95 | 1015.1 |
| 20260905232234 | 63 | 324 | 0.9 | 0.9 | 0.00 | 0.00 | 0.00 | 95 | 1015.1 |
| 20260905231736 | 63 | 322 | 0.9 | 0.9 | 0.00 | 0.00 | 0.00 | 95 | 1015.1 |
| 20260905231235 | 63 | 324 | 0.9 | 0.9 | 0.00 | 0.00 | 0.00 | 95 | 1015.1 |
| 20260905230734 | 63 | 326 | 0.9 | 0.9 | 0.00 | 0.00 | 0.00 | 94 | 1014.9 |
| 20260905230235 | 64 | 326 | 0.9 | 0.9 | 0.00 | 0.00 | 0.00 | 91 | 1015.1 |
| 20260905225736 | 64 | 326 | 0.9 | 0.9 | 0.00 | 0.00 | 0.00 | 91 | 1015.1 |
| 20260905225234 | 64 | 0.0 | 0.0 | 0.00 | 0.00 | 0.00 | 90 | 1015.1 | |
| 20260905224733 | 65 | 0.0 | 0.0 | 0.00 | 0.00 | 0.00 | 88 | 1015.1 | |
| 20260905224233 | 66 | 0.0 | 0.0 | 0.00 | 0.00 | 0.00 | 88 | 1015.1 | |
| 20260905223733 | 66 | 0.0 | 0.0 | 0.00 | 0.00 | 0.00 | 88 | 1014.7 | |
| 20260905223333 | 67 | 0.0 | 0.0 | 0.00 | 0.00 | 0.00 | 84 | 1014.7 | |
| 20260905222231 | 68 | 330 | 0.9 | 0.9 | 0.00 | 0.00 | 0.00 | 83 | 1014.7 |
| 20260905221732 | 68 | 330 | 0.9 | 0.9 | 0.00 | 0.00 | 0.00 | 83 | 1014.7 |
| 20260905221231 | 69 | 345 | 2.6 | 2.6 | 0.00 | 0.00 | 0.00 | 78 | 1014.7 |
| 20260905220730 | 69 | 345 | 2.6 | 2.6 | 0.00 | 0.00 | 0.00 | 78 | 1014.7 |
| 20260905220232 | 69 | 316 | 0.9 | 1.7 | 0.00 | 0.00 | 0.00 | 78 | 1014.7 |
| 20260905215731 | 69 | 329 | 0.9 | 0.9 | 0.00 | 0.00 | 0.00 | 78 | 1014.7 |
| 20260905215230 | 70 | 356 | 2.6 | 6.1 | 0.00 | 0.00 | 0.00 | 76 | 1014.7 |
| 20260905214729 | 70 | 328 | 2.6 | 4.3 | 0.00 | 0.00 | 0.00 | 75 | 1014.4 |
| 20260905214228 | 69 | 338 | 1.7 | 2.6 | 0.00 | 0.00 | 0.00 | 75 | 1014.7 |
| 20260905213730 | 71 | 334 | 0.9 | 1.7 | 0.00 | 0.00 | 0.00 | 72 | 1014.4 |
| 20260905213229 | 70 | 320 | 0.9 | 1.7 | 0.00 | 0.00 | 0.00 | 75 | 1014.4 |